Location: Labastide
(43.3477°N, 1.1210°E)
Time: 23:18:21
(UTC+00:00)

Daily predictions for brighter satellites

Satellite Brightness Start Highest point End
(mag) Time Altitude Azimuth Time Altitude Azimuth Time Altitude Azimuth
NOAA 6 4.4 16:43:51 10° SE 16:48:41 43° ENE 16:53:32 10° N
Cosmos 2221 2.9 16:46:11 10° SSW 16:50:25 70° W 16:54:44 10° N
Sich 1 4.0 16:47:04 10° NNE 16:50:38 25° ENE 16:54:13 10° SE
Cosmos 1980 Rocket 3.1 16:46:22 10° N 16:51:12 28° NE 16:55:59 10° ESE
Cosmos 1805 Rocket 4.2 16:48:45 10° N 16:52:42 33° ENE 16:56:38 10° SE
Cosmos 2369 4.3 16:48:00 10° N 16:53:15 35° NE 16:58:27 10° ESE
Cosmos 1842 Rocket 3.9 16:50:51 10° SSW 16:55:18 73° W 16:59:48 10° N
USA 234 3.4 16:49:16 10° ESE 16:55:39 57° NNE 17:02:01 10° NW
CZ-4C R/B 3.6 16:50:52 10° NNW 16:57:11 34° NE 17:04:26 10° E
Cosmos 1092 Rocket 4.2 16:52:38 10° N 16:58:50 52° ENE 17:04:58 10° SSE
Cosmos 2084 3.4 16:54:49 10° NW 16:59:09 77° NE 17:03:39 10° SE
Cosmos 1812 4.3 16:56:56 10° SE 16:59:26 17° E 17:01:56 10° NE
NOSS 3-1 (A) 4.1 16:52:06 10° NW 16:59:43 78° NE 17:08:34 10° SE
SL-16 R/B 3.9 16:59:53 10° NNE 17:01:58 12° NE 17:04:02 10° ENE
ISS -2.6 16:59:08 10° NW 17:02:07 27° NNE 17:04:59 11° ENE
Meteor 1-25 Rocket 4.2 16:58:58 10° N 17:04:30 63° ENE 17:10:03 10° SSE
SMAP 3.1 17:00:04 10° SSE 17:04:38 59° ENE 17:09:13 10° N
Cosmos 2082 Rocket 2.8 16:59:41 10° S 17:04:50 36° ESE 17:09:58 10° NE
Meteor PRIRODA 3.9 17:01:43 10° S 17:05:20 73° WSW 17:08:59 10° NNW
Cosmos 1939 Rocket 2.9 17:01:47 10° SSE 17:05:51 65° ENE 17:09:55 10° N
CORIOLIS 4.2 17:02:19 10° SSE 17:07:35 58° ENE 17:12:55 10° N
NOAA 12 4.3 17:05:29 10° S 17:10:49 80° WSW 17:16:10 10° NNW
CZ-4B DEB 4.3 17:08:36 10° SSE 17:13:59 57° ENE 17:19:21 10° N
Cosmos 2278 4.4 17:12:12 10° N 17:17:16 32° NE 17:22:18 10° ESE
Cosmos 1602 3.7 17:14:08 10° N 17:17:58 62° E 17:21:48 10° SSE
AQUARIUS 4.1 17:14:06 10° SSE 17:18:32 69° ENE 17:23:01 10° N
Cosmos 540 Rocket 3.4 17:14:43 10° S 17:19:47 73° ESE 17:24:54 10° NNE
Cosmos 1627 Rocket 4.4 17:14:12 10° N 17:20:19 64° E 17:26:23 10° SSE
Cosmos 2034 Rocket 4.4 17:15:01 10° SSW 17:21:06 66° W 17:27:16 10° N
Radarsat 4.5 17:17:49 10° SSE 17:23:00 77° ENE 17:28:12 10° N
ARGOS 3.8 17:19:35 10° SE 17:24:16 31° ENE 17:28:57 10° N
Cosmos 2279 Rocket 4.4 17:19:09 10° SSE 17:24:53 40° E 17:30:37 10° NNE
COSMOS 2406 3.2 17:19:40 10° SSW 17:25:26 88° ESE 17:31:12 10° NNE
Cosmos 1833 Rocket 3.0 17:21:10 10° SSW 17:26:46 71° WNW 17:32:25 10° NNE
COSMO-SKYMED 1 3.4 17:23:25 10° NE 17:27:15 30° E 17:31:05 10° SSE
Cosmos 1782 2.7 17:24:21 10° S 17:28:19 66° E 17:32:17 10° NNE
Cosmos 1814 Rocket 4.4 17:24:31 10° S 17:29:23 40° ESE 17:33:44 12° NE
Meteor 2-21 4.4 17:25:15 10° N 17:31:19 69° E 17:37:20 10° SSE
ATLAS 5 CENTAUR R/B 3.5 17:25:17 10° NW 17:31:25 23° N 17:33:08 17° NE
Cosmos 921 Rocket 4.5 17:30:08 10° SE 17:32:43 17° E 17:32:43 17° E
CZ-2C R/B 3.8 17:32:17 10° SSE 17:33:04 10° SSE 17:33:49 10° SE
Cosmos 1633 Rocket 3.6 17:31:53 10° N 17:35:53 34° ENE 17:39:53 10° SE
CZ-2D R/B 3.1 17:35:32 10° SSE 17:39:20 72° ENE 17:43:10 10° N
Cosmos 1898 Rocket 4.1 17:34:51 10° NNW 17:40:01 61° WSW 17:45:07 10° S
Cosmos 1634 Rocket 4.0 17:35:25 10° S 17:41:44 86° E 17:48:06 10° N
COSMOS 2455 2.8 17:36:41 10° SSW 17:42:41 87° ESE 17:48:14 13° NNE
PAYLOAD B 4.2 17:38:11 10° SSE 17:43:46 79° ENE 17:49:23 10° NNW
CZ-4B R/B 3.2 17:41:02 10° SSE 17:46:20 58° ENE 17:51:35 10° N
CZ-2C R/B 2.7 17:41:42 10° NNE 17:46:47 52° E 17:51:48 10° S
Cosmos 1151 Rocket 3.0 17:43:06 10° S 17:47:19 56° E 17:51:27 11° NNE
Cosmos 1500 3.1 17:43:44 10° N 17:47:29 89° W 17:51:12 10° S
Cosmos 2026 Rocket 4.0 17:42:59 10° N 17:49:08 81° W 17:55:11 10° S
Lacrosse 5 rocket 2.6 17:47:14 10° NNW 17:50:25 23° NNE 17:50:36 23° NNE
Okean O Rocket 1.9 17:46:12 10° SE 17:50:26 45° ENE 17:54:42 10° N
Cosmos 2208 Rocket 4.2 17:53:19 10° S 17:58:31 52° ESE 18:01:39 23° NE
CZ-4 R/B 4.5 17:55:45 10° SSE 17:59:44 52° ENE 18:03:46 10° N
Cosmos 1666 Rocket 3.4 17:57:20 10° N 18:01:49 80° E 18:06:12 10° S
H-2A R/B 2.1 17:57:17 10° S 18:02:29 78° WSW 18:07:33 10° NNW
NOSS 2-2 (C) 4.4 17:57:17 10° NW 18:02:42 89° ENE 18:10:21 10° SE
Meteor 1-11 Rocket 4.3 17:58:46 10° N 18:03:51 33° ENE 18:05:46 27° ESE
Cosmos 1328 Rocket 3.5 18:00:27 10° S 18:04:50 62° E 18:07:30 23° NNE
Cosmos 1470 Rocket 3.9 18:00:47 10° N 18:05:00 41° ENE 18:09:14 10° SSE
USA 267 4.0 18:01:03 18° NE 18:05:39 44° NNW 18:11:45 10° W
Cosmos 1655 Rocket 4.2 18:01:01 10° N 18:07:11 47° ENE 18:13:16 10° SSE
USA 305 4.4 18:05:22 10° NW 18:08:41 22° N 18:08:46 22° NNE
Cosmos 2360 Rocket 4.0 18:05:29 10° N 18:07:10 15° NNE 18:07:10 15° NNE
Landsat 5 3.3 18:08:42 41° NE 18:09:50 60° E 18:13:46 10° S
Cosmos 2180 Rocket 4.4 18:07:13 10° S 18:13:31 75° E 18:19:49 10° NNE
Cosmos 841 Rocket 4.3 18:09:01 10° SW 18:14:00 49° WNW 18:18:54 11° N
SKYMED 2 3.6 18:12:00 16° N 18:15:27 82° WNW 18:19:47 10° SSW
Feng Yun 1-1 Rocket 4.4 18:10:01 10° SSE 18:15:46 56° ENE 18:21:30 10° N
Cosmos 1666 2.8 18:13:14 10° NNW 18:16:57 73° W 18:20:37 10° S
Meteor 2-8 Rocket 4.3 18:10:59 10° S 18:17:07 77° E 18:23:17 10° N
ATLAS CENTAUR R/B 3.6 18:10:23 10° WSW 18:18:31 38° NW 18:20:44 23° N
Cosmos 1125 Rocket 4.0 18:18:07 10° N 18:22:14 39° NE 18:22:14 39° NE
SL-24 R/B - RUBIN 2 4.3 18:22:23 10° NW 18:26:44 52° WSW 18:30:54 10° SSE
Cosmos 2322 Rocket 3.2 18:24:18 10° N 18:27:49 29° NNE 18:27:49 29° NNE
SL-08 RB Rocket 3.6 18:29:00 10° SSE 18:33:38 88° E 18:38:17 10° NNW
Cosmos 1812 4.4 18:31:23 10° SW 18:34:52 33° WNW 18:37:47 14° NNW
Cosmos 1980 Rocket 3.1 18:30:01 10° NW 18:35:26 49° WSW 18:40:49 10° S
USA 234 4.1 18:32:26 10° SSE 18:38:43 48° SW 18:45:01 10° WNW
ISS -2.3 18:35:48 10° WNW 18:37:59 36° WNW 18:37:59 36° WNW
CZ-4C R/B 3.1 18:39:01 10° NW 18:46:26 77° WSW 18:54:59 10° SSE
Cosmos 1515 Rocket 4.0 18:42:36 10° S 18:46:04 54° SSW 18:46:04 54° SSW
SL-16 R/B 2.5 18:41:42 10° NNW 18:46:11 49° NNE 18:46:11 49° NNE
Cosmos 2082 Rocket 3.5 18:43:41 10° WSW 18:48:53 36° NW 18:52:35 17° N
Cosmos 44 Rocket 3.7 18:49:19 10° NNW 18:53:10 55° NNW 18:53:10 55° NNW
Cosmos 2333 Rocket 4.5 18:54:07 10° N 18:54:26 11° N 18:54:26 11° N
Meteor 1-27 Rocket 4.2 19:02:46 10° S 19:06:41 48° SSW 19:06:41 48° SSW
DMSP B5D2-2 4.4 19:10:15 60° SW 19:10:15 60° SW 19:14:40 10° SSW
Cosmos 2298 Rocket 4.4 19:04:43 10° NNW 19:09:28 62° WNW 19:09:28 62° WNW
CZ-2C R/B 3.9 19:08:40 10° SW 19:09:35 14° SSW 19:09:35 14° SSW
GEOS 3 Rocket 4.4 19:19:06 47° NW 19:19:06 47° NW 19:22:48 10° NW
Cosmos 1818 4.2 19:14:51 10° NW 19:19:33 53° W 19:19:33 53° W
Okean O Rocket 4.3 19:23:57 10° SW 19:27:00 18° W 19:30:03 10° NW
Lacrosse 5 rocket 4.2 19:25:49 10° NW 19:26:12 12° NW 19:26:12 12° NW
BREEZE-M DEB (TANK) 4.3 19:22:09 10° SW 19:44:51 80° NW 19:44:57 80° NNW
